Вернуться в каталог

COSMOS 2251 DEB

АктивенLEO
NORAD 40802·DEBRIS·🇷🇺 Russia

Запущен Jun 16, 1993 с Plesetsk Cosmodrome

Loading…

Ближайшие Пролёты (ближайшие 24 часа)

TLE

СвежийSource: Space-Track

Эпоха: Sep 14, 2026, 11:17 UTC

1 40802U 93036BWF 26257.47044543  .00001937  00000-0  25432-3 0  9997
2 40802  74.0413 330.9442 0060643 356.0409   4.0278 14.79763016684852

Отслеживайте COSMOS 2251 DEB в реальном времени с AllMySat

Download on the App Store